Вернуться в каталог

STARLINK-37033

АктивенСвязьVLEO
NORAD 68959·PAYLOAD·🇺🇸 United States

Запущен May 1, 2026 с Cape Canaveral Space Force Station

Loading…

Ближайшие Пролёты (ближайшие 24 часа)

TLE

СвежийSource: CelesTrak SupGP

Эпоха: Sep 15, 2026, 02:55 UTC

1 68959C 26099J   26258.12201389  .00007596  00000+0  22443-3 0  2584
2 68959  53.1577 101.0295 0000773  80.3987  62.1595 15.34388235    18

Отслеживайте STARLINK-37033 в реальном времени с AllMySat

Download on the App Store